When you browse on this site, cookies collect data to enhance your experience and personalize the content and advertising you see.
Visit our Privacy Policy to learn more. By continuing to use the site, you agree to this use of cookies and data.
  • In Latvia
  • List of Countries
  • For 7 days
  • Water Temperature
  • Satellite Maps
  • Weather Map
  • Weather Widgets
  • user-avatar
    Login

    Hourly Weather Saldus

    Today, 23 May, Thursday

    Time Temperature Precipitation Wind Pressure Humidity
    00:00 +16°C° 0 mm 1 mps 748 mmHg 93%
    01:00 +15°C° 0 mm 1 mps 748 mmHg 95%
    02:00 +15°C° 0 mm 1 mps 747 mmHg 95%
    03:00 +15°C° 0 mm 1 mps 747 mmHg 95%
    04:00 +15°C° 0 mm 1 mps 747 mmHg 96%
    05:00 +15°C° 0 mm 1 mps 747 mmHg 96%
    06:00 +16°C° 0 mm 1 mps 747 mmHg 92%
    07:00 +19°C° 0 mm 1 mps 748 mmHg 89%
    08:00 +19°C° 0 mm 2 mps 748 mmHg 85%
    09:00 +20°C° 0.6 mm 2 mps 748 mmHg 81%
    10:00 +23°C° 0.6 mm 2 mps 748 mmHg 77%
    11:00 +24°C° 0.6 mm 2 mps 748 mmHg 73%
    12:00 +24°C° 2.1 mm 2 mps 748 mmHg 74%
    13:00 +24°C° 2.1 mm 2 mps 748 mmHg 76%
    14:00 +24°C° 2.1 mm 2 mps 748 mmHg 77%
    15:00 +23°C° 0.5 mm 2 mps 748 mmHg 77%
    16:00 +23°C° 0.5 mm 2 mps 748 mmHg 78%
    17:00 +23°C° 0.5 mm 2 mps 748 mmHg 78%
    18:00 +20°C° 0 mm 2 mps 748 mmHg 80%
    19:00 +18°C° 0 mm 3 mps 748 mmHg 82%
    20:00 +16°C° 0 mm 3 mps 748 mmHg 84%
    21:00 +14°C° 0.1 mm 3 mps 748 mmHg 88%
    22:00 +13°C° 0.1 mm 2 mps 749 mmHg 91%
    23:00 +12°C° 0.1 mm 2 mps 749 mmHg 95%

    Tomorrow, 24 May, Friday

    Time Temperature Precipitation Wind Pressure Humidity
    00:00 +10°C° 0 mm 2 mps 749 mmHg 96%
    01:00 +10°C° 0 mm 2 mps 749 mmHg 97%
    02:00 +10°C° 0 mm 2 mps 749 mmHg 98%
    03:00 +10°C° 0 mm 2 mps 749 mmHg 98%
    04:00 +12°C° 0 mm 2 mps 749 mmHg 97%
    05:00 +11°C° 0 mm 3 mps 749 mmHg 96%
    06:00 +13°C° 0 mm 2 mps 749 mmHg 91%
    07:00 +14°C° 0 mm 2 mps 749 mmHg 86%
    08:00 +15°C° 0 mm 2 mps 750 mmHg 81%
    09:00 +17°C° 0 mm 2 mps 750 mmHg 71%
    10:00 +18°C° 0 mm 2 mps 750 mmHg 60%
    11:00 +20°C° 0 mm 2 mps 750 mmHg 50%
    12:00 +20°C° 0 mm 3 mps 750 mmHg 49%
    13:00 +21°C° 0 mm 3 mps 750 mmHg 48%
    14:00 +21°C° 0 mm 3 mps 750 mmHg 47%
    15:00 +20°C° 0 mm 3 mps 750 mmHg 48%
    16:00 +20°C° 0 mm 4 mps 750 mmHg 50%
    17:00 +19°C° 0 mm 4 mps 750 mmHg 52%
    18:00 +18°C° 0 mm 3 mps 749 mmHg 60%
    19:00 +16°C° 0 mm 2 mps 749 mmHg 68%
    20:00 +14°C° 0 mm 2 mps 749 mmHg 77%
    21:00 +13°C° 0 mm 2 mps 749 mmHg 81%
    22:00 +12°C° 0 mm 2 mps 749 mmHg 85%
    23:00 +10°C° 0 mm 2 mps 749 mmHg 90%

    Day after tomorrow, 25 May, Saturday

    Time Temperature Precipitation Wind Pressure Humidity
    00:00 +10°C° 0 mm 2 mps 748 mmHg 89%
    01:00 +9°C° 0 mm 2 mps 748 mmHg 87%
    02:00 +9°C° 0 mm 2 mps 748 mmHg 86%
    03:00 +9°C° 0 mm 2 mps 747 mmHg 85%
    04:00 +10°C° 0 mm 2 mps 747 mmHg 83%
    05:00 +10°C° 0 mm 3 mps 746 mmHg 81%
    06:00 +10°C° 1.5 mm 3 mps 746 mmHg 86%
    07:00 +10°C° 1.5 mm 4 mps 746 mmHg 90%
    08:00 +10°C° 1.5 mm 4 mps 746 mmHg 95%
    09:00 +11°C° 0.3 mm 4 mps 746 mmHg 91%
    10:00 +12°C° 0.3 mm 4 mps 746 mmHg 88%
    11:00 +12°C° 0.3 mm 5 mps 745 mmHg 84%
    12:00 +13°C° 0.1 mm 5 mps 746 mmHg 79%
    13:00 +13°C° 0.1 mm 5 mps 746 mmHg 74%
    14:00 +14°C° 0.1 mm 6 mps 746 mmHg 68%
    15:00 +13°C° 0 mm 5 mps 746 mmHg 69%
    16:00 +13°C° 0 mm 5 mps 745 mmHg 70%
    17:00 +13°C° 0 mm 5 mps 745 mmHg 70%
    18:00 +12°C° 0 mm 4 mps 745 mmHg 73%
    19:00 +11°C° 0 mm 4 mps 745 mmHg 77%
    20:00 +11°C° 0 mm 3 mps 745 mmHg 80%
    21:00 +10°C° 0 mm 3 mps 745 mmHg 85%
    22:00 +9°C° 0 mm 3 mps 745 mmHg 91%
    23:00 +8°C° 0 mm 3 mps 744 mmHg 97%

    26 May, Sunday

    Time Temperature Precipitation Wind Pressure Humidity
    00:00 +7°C° 0 mm 4 mps 744 mmHg 95%
    01:00 +8°C° 0 mm 4 mps 744 mmHg 94%
    02:00 +8°C° 0 mm 4 mps 744 mmHg 93%
    03:00 +10°C° 0 mm 4 mps 744 mmHg 91%
    04:00 +10°C° 0 mm 4 mps 743 mmHg 89%
    05:00 +10°C° 0 mm 4 mps 743 mmHg 88%
    06:00 +9°C° 0 mm 5 mps 743 mmHg 86%
    07:00 +10°C° 0 mm 5 mps 743 mmHg 84%
    08:00 +10°C° 0 mm 6 mps 743 mmHg 82%
    09:00 +10°C° 0.2 mm 5 mps 743 mmHg 84%
    10:00 +9°C° 0.2 mm 5 mps 743 mmHg 85%
    11:00 +9°C° 0.2 mm 5 mps 743 mmHg 87%
    12:00 +9°C° 0.2 mm 5 mps 743 mmHg 86%
    13:00 +8°C° 0.2 mm 6 mps 743 mmHg 86%
    14:00 +8°C° 0.2 mm 6 mps 743 mmHg 85%
    15:00 +8°C° 0.1 mm 6 mps 743 mmHg 80%
    16:00 +9°C° 0.1 mm 7 mps 743 mmHg 75%
    17:00 +9°C° 0.1 mm 7 mps 742 mmHg 70%
    18:00 +8°C° 0.2 mm 7 mps 742 mmHg 74%
    19:00 +7°C° 0.2 mm 6 mps 742 mmHg 79%
    20:00 +7°C° 0.2 mm 6 mps 741 mmHg 84%
    21:00 +7°C° 0.1 mm 5 mps 741 mmHg 85%
    22:00 +7°C° 0.1 mm 5 mps 742 mmHg 87%
    23:00 +7°C° 0.1 mm 5 mps 742 mmHg 88%

    27 May, Monday

    Time Temperature Precipitation Wind Pressure Humidity
    00:00 +7°C° 0 mm 5 mps 742 mmHg 88%
    01:00 +6°C° 0 mm 4 mps 742 mmHg 87%
    02:00 +6°C° 0 mm 4 mps 743 mmHg 86%
    03:00 +6°C° 0 mm 4 mps 743 mmHg 86%
    04:00 +7°C° 0 mm 3 mps 743 mmHg 86%
    05:00 +7°C° 0 mm 3 mps 744 mmHg 86%
    06:00 +7°C° 0 mm 4 mps 744 mmHg 80%
    07:00 +10°C° 0 mm 4 mps 744 mmHg 73%
    08:00 +10°C° 0 mm 5 mps 745 mmHg 67%
    09:00 +12°C° 0 mm 5 mps 745 mmHg 63%
    10:00 +13°C° 0 mm 5 mps 746 mmHg 60%
    11:00 +14°C° 0 mm 5 mps 746 mmHg 57%
    12:00 +15°C° 0 mm 5 mps 747 mmHg 55%
    13:00 +15°C° 0 mm 4 mps 747 mmHg 54%
    14:00 +17°C° 0 mm 4 mps 747 mmHg 53%
    15:00 +17°C° 0 mm 4 mps 747 mmHg 53%
    16:00 +17°C° 0 mm 3 mps 747 mmHg 54%
    17:00 +17°C° 0 mm 3 mps 747 mmHg 55%
    18:00 +16°C° 0 mm 2 mps 747 mmHg 63%
    19:00 +15°C° 0 mm 2 mps 747 mmHg 70%
    20:00 +14°C° 0 mm 1 mps 746 mmHg 78%
    21:00 +13°C° 0 mm 2 mps 746 mmHg 83%
    22:00 +13°C° 0 mm 2 mps 746 mmHg 89%
    23:00 +11°C° 0 mm 3 mps 746 mmHg 94%

    28 May, Tuesday

    Time Temperature Precipitation Wind Pressure Humidity
    00:00 +12°C° 0 mm 3 mps 746 mmHg 95%
    01:00 +12°C° 0 mm 3 mps 746 mmHg 96%
    02:00 +12°C° 0 mm 3 mps 746 mmHg 97%
    03:00 +12°C° 0 mm 3 mps 745 mmHg 96%
    04:00 +13°C° 0 mm 3 mps 745 mmHg 96%
    05:00 +13°C° 0 mm 3 mps 745 mmHg 96%
    06:00 +14°C° 0 mm 3 mps 745 mmHg 91%
    07:00 +15°C° 0 mm 4 mps 744 mmHg 87%
    08:00 +18°C° 0 mm 4 mps 744 mmHg 83%
    09:00 +18°C° 0.1 mm 4 mps 744 mmHg 83%
    10:00 +17°C° 0.1 mm 5 mps 743 mmHg 84%
    11:00 +19°C° 0.1 mm 5 mps 743 mmHg 84%
    12:00 +18°C° 0.6 mm 4 mps 743 mmHg 88%
    13:00 +17°C° 0.6 mm 4 mps 742 mmHg 92%
    14:00 +16°C° 0.6 mm 3 mps 742 mmHg 96%
    15:00 +17°C° 0.1 mm 3 mps 741 mmHg 95%
    16:00 +17°C° 0.1 mm 3 mps 741 mmHg 94%
    17:00 +18°C° 0.1 mm 3 mps 741 mmHg 93%
    18:00 +18°C° 0.5 mm 2 mps 740 mmHg 93%
    19:00 +18°C° 0.5 mm 2 mps 740 mmHg 94%
    20:00 +18°C° 0.5 mm 2 mps 740 mmHg 95%
    21:00 +17°C° 0.5 mm 3 mps 741 mmHg 96%
    22:00 +15°C° 0.5 mm 4 mps 741 mmHg 96%
    23:00 +14°C° 0.5 mm 5 mps 742 mmHg 96%
    Show more